sat.trackr.live / text

‹ back to catalog

UFO 2 (USA 95)

NORAD 22787 · 1993-056A

PAYLOAD ACTIVE UNKNOWN

§ Identity

Operator
Country
US
Launch date
1993-09-03
Launch site
AFETR
Launch vehicle
Mass (kg)
RCS (m²)
0.00

Purposes: comms

External: N2YO · Heavens-Above · Gunter

§ Orbital elements

Epoch: 2026-09-09T22:44:38.199840Z

Period
1,436.02 min
Inclination
11.9257°
Eccentricity
0.0002059
Mean motion
1.00277056 rev/d
Perigee alt
35,776.4 km
Apogee alt
35,793.8 km
Semi-major
42,163.3 km
B*
0.0000e+0
RAAN
3.0707°
Arg perigee
246.6739°
Mean anomaly
109.1158°
Rev number
11,939

§ Raw data

UFO 2 (USA 95)1 22787U 93056A   26252.94766435  .00000111  00000+0  00000+0 0  99912 22787  11.9257   3.0707 0002059 246.6739 109.1158  1.00277056119399

JSON: /api/v1/satellites/22787 · /tle

For live sub-satellite position, see the globe view (requires WebGL).

§ Visibility from observer

Set your observer location to see the next 7 days of passes ≥ 10°. The values pass through the URL so the page stays shareable.

No JS? Fill the form by hand. The geolocation button needs JavaScript.